Content
SEND FEEDBACK

Daily
Averages
Monthly
Summary
United States of America

CAMBRIDGE, MINNESOTA


Home > North America > United States > Minnesota
Elevation: 293 meters     Latitude: 45 34N     Longitude: 093 13W

WEATHER
 
SELECT A DAY
Number of Records: 457,730;   Date Range: 1/1/95 - 9/16/14
 
SHARE

PRINT THIS DATA

[ ← Previous Day ]
WEATHER ALMANAC - 23 JANUARY, 2013
[ Next Day → ]
[ °F ]   °C
Weather ElementAverageHighLow
Temperature-16.7 °C-12 °C (10:56 am)-23 °C (11:16 pm)
Dewpoint-19.8 °C-14 °C (11:16 am)-27 °C (11:55 pm)
Humidity77.2 %92 % (6:55 am)66 % (3:36 pm)
Barometer1024.7 hPa1035.9 hPa (11:34 pm)1019.6 hPa (5:16 am)
Wind Speed11.1 km/h31.5 km/h (2:35 pm)
Wind Gust46.3 km/h (12:36 pm)
Weather ElementAverage
Visibility15.1 km
Wind DirectionSSW (211.1 °)

Weather ElementTotal
Precipitation---
Heating Degree Days35.8 (Base 18.3)
Averaged from 70 records on 23 January, 2013
WEATHER CONDITIONS BREAKOUT
WIND DIRECTION BREAKOUT
WEATHER BY HOUR - 23 JANUARY, 2013
[ °F ]   °C
Local TimeTemperatureDewpointHumidityBarometerVisibilityWind DirectionWind SpeedGust SpeedPrecipitationEventsConditions
12:36 AM-18 °C-21 °C78 %1022.4 hPa16.1 kmCalmOvercast
12:56 AM-18 °C-20 °C85 %1022.4 hPa16.1 kmCalmOvercast
1:16 AM-17 °C-20 °C78 %1022 hPa16.1 kmCalmOvercast
1:35 AM-17 °C-19 °C85 %1021.7 hPa16.1 kmSSW (210°)5.6 km/hOvercast
1:56 AM-17 °C-19 °C85 %1021.7 hPa16.1 kmSSW (210°)7.4 km/hOvercast
2:15 AM-17 °C-19 °C85 %1021.7 hPa16.1 kmCalmSnowLight Snow
2:35 AM-17 °C-19 °C85 %1021.3 hPa16.1 kmCalmOvercast
2:56 AM-17 °C-19 °C85 %1021 hPa16.1 kmSouth (190°)5.6 km/hOvercast
3:16 AM-16 °C-19 °C78 %1020.7 hPa16.1 kmCalmOvercast
3:36 AM-16 °C-19 °C78 %1020.7 hPa16.1 kmCalmSnowLight Snow
3:56 AM-16 °C-18 °C85 %1020.7 hPa16.1 kmCalmSnowLight Snow
4:16 AM-16 °C-18 °C85 %1020.3 hPa16.1 kmCalmSnowLight Snow
4:35 AM-16 °C-18 °C85 %1020 hPa11.3 kmCalmSnowLight Snow
4:56 AM-16 °C-18 °C85 %1020 hPa11.3 kmCalmSnowLight Snow
5:16 AM-16 °C-18 °C85 %1019.6 hPa11.3 kmCalmSnowLight Snow
5:36 AM-16 °C-18 °C85 %1020 hPa11.3 kmCalmSnowLight Snow
5:56 AM-16 °C-18 °C85 %1020 hPa11.3 kmCalmSnowLight Snow
6:16 AM-16 °C-18 °C85 %1020 hPa16.1 kmCalmSnowLight Snow
6:36 AM-16 °C-18 °C85 %1020 hPa11.3 kmCalmSnowLight Snow
6:55 AM-16 °C-17 °C92 %1020 hPa11.3 kmCalmSnowLight Snow
7:16 AM-16 °C-17 °C92 %1020 hPa16.1 kmCalmSnowLight Snow
7:35 AM-16 °C-17 °C92 %1019.6 hPa16.1 kmCalmSnowLight Snow
7:56 AM-16 °C-17 °C92 %1020 hPa16.1 kmCalmSnowLight Snow
8:15 AM-15 °C-17 °C85 %1019.6 hPa16.1 kmWSW (240°)5.6 km/hSnowLight Snow
8:36 AM-15 °C-17 °C85 %1019.6 hPa4.8 kmWSW (240°)9.3 km/hSnowLight Snow
8:56 AM-14 °C-17 °C79 %1019.6 hPa6.4 kmWSW (250°)9.3 km/hSnowLight Snow
9:16 AM-14 °C-16 °C85 %1019.6 hPa8 kmWSW (250°)11.1 km/hSnowLight Snow
9:36 AM-14 °C-16 °C85 %1020 hPa11.3 kmWest (260°)11.1 km/hSnowLight Snow
9:56 AM-13 °C-16 °C79 %1020 hPa16.1 kmWest (270°)11.1 km/hClear
10:16 AM-13 °C-16 °C79 %1020.3 hPa16.1 kmWNW (290°)16.7 km/hClear
10:36 AM-13 °C-15 °C85 %1020.3 hPa16.1 kmWest (270°)14.8 km/hClear
10:56 AM-12 °C-15 °C79 %1020.3 hPa16.1 kmWest (280°)14.8 km/hClear
11:16 AM-12 °C-14 °C85 %1020.3 hPa16.1 kmWNW (290°)22.2 km/h29.6 km/hClear
11:36 AM-12 °C-15 °C79 %1020.3 hPa16.1 kmWNW (300°)27.8 km/h38.9 km/hScattered Clouds
11:56 AM-12 °C-15 °C79 %1020.7 hPa16.1 kmWNW (300°)29.6 km/h38.9 km/hScattered Clouds
12:15 PM-12 °C-15 °C79 %1020.7 hPa16.1 kmWNW (300°)16.7 km/h42.6 km/hMostly Cloudy
12:36 PM-12 °C-16 °C73 %1021 hPa16.1 kmWNW (290°)24.1 km/h46.3 km/hMostly Cloudy
12:56 PM-12 °C-16 °C73 %1021 hPa16.1 kmNW (320°)22.2 km/h33.3 km/hMostly Cloudy
1:15 PM-12 °C-16 °C73 %1021 hPa16.1 kmWNW (300°)25.9 km/h37 km/hMostly Cloudy
1:36 PM-13 °C-17 °C73 %1021.7 hPa16.1 kmWNW (300°)22.2 km/h44.4 km/hScattered Clouds
1:56 PM-12 °C-17 °C67 %1022 hPa16.1 kmNW (320°)20.4 km/h38.9 km/hMostly Cloudy
2:16 PM-13 °C-18 °C67 %1022.7 hPa16.1 kmNNW (330°)25.9 km/h38.9 km/hOvercast
2:35 PM-14 °C-18 °C72 %1023.4 hPa16.1 kmNNW (330°)31.5 km/h44.4 km/hScattered Clouds
3:16 PM-16 °C-20 °C72 %1025.1 hPa16.1 kmNNW (340°)27.8 km/h44.4 km/hClear
3:36 PM-16 °C-21 °C66 %1025.4 hPa16.1 kmNNW (330°)24.1 km/h40.7 km/hClear
3:56 PM-16 °C-21 °C66 %1025.7 hPa16.1 kmNW (320°)24.1 km/h42.6 km/hClear
4:16 PM-17 °C-21 °C72 %1026.8 hPa16.1 kmNNW (330°)22.2 km/h37 km/hClear
4:35 PM-17 °C-22 °C66 %1027.1 hPa16.1 kmNNW (330°)22.2 km/h35.2 km/hClear
4:56 PM-17 °C-22 °C66 %1027.8 hPa16.1 kmNNW (330°)20.4 km/h29.6 km/hClear
5:16 PM-18 °C-22 °C72 %1028.4 hPa16.1 kmNNW (330°)22.2 km/h33.3 km/hClear
5:35 PM-18 °C-22 °C72 %1029.1 hPa16.1 kmNW (320°)20.4 km/h29.6 km/hClear
5:56 PM-18 °C-23 °C66 %1029.5 hPa16.1 kmNNW (330°)16.7 km/h25.9 km/hClear
6:16 PM-18 °C-23 °C66 %1030.5 hPa16.1 kmNNW (330°)11.1 km/h25.9 km/hClear
6:36 PM-19 °C-23 °C71 %1030.8 hPa16.1 kmNNW (330°)13 km/hClear
6:56 PM-19 °C-24 °C66 %1031.2 hPa16.1 kmNNW (330°)14.8 km/h25.9 km/hClear
7:15 PM-19 °C-24 °C66 %1031.5 hPa16.1 kmNNW (330°)16.7 km/hClear
7:36 PM-19 °C-24 °C66 %1031.8 hPa16.1 kmNNW (330°)13 km/hClear
7:54 PM-20 °C-24 °C71 %1032.2 hPa16.1 kmNNW (340°)13 km/hClear
8:15 PM-20 °C-24 °C71 %1032.5 hPa16.1 kmNorth (350°)11.1 km/hClear
8:36 PM-21 °C-25 °C71 %1032.8 hPa16.1 kmNorth (350°)9.3 km/hClear
8:55 PM-21 °C-25 °C71 %1033.5 hPa16.1 kmNNW (340°)9.3 km/hClear
9:16 PM-21 °C-25 °C71 %1033.9 hPa16.1 kmNNW (330°)11.1 km/hClear
9:36 PM-22 °C-26 °C71 %1033.9 hPa16.1 kmNNW (340°)9.3 km/hClear
9:56 PM-22 °C-26 °C71 %1034.2 hPa16.1 kmNorth (350°)9.3 km/hClear
10:15 PM-22 °C-26 °C71 %1034.5 hPa16.1 kmNorth (360°)5.6 km/hClear
10:36 PM-22 °C-26 °C71 %1034.9 hPa16.1 kmNorth (10°)7.4 km/hClear
10:54 PM-22 °C-26 °C71 %1035.2 hPa16.1 kmNorth (350°)7.4 km/hClear
11:16 PM-23 °C-26 °C77 %1035.6 hPa16.1 kmNorth (350°)11.1 km/hClear
11:34 PM-23 °C-26 °C77 %1035.9 hPa16.1 kmNorth (350°)5.6 km/hClear
11:55 PM-23 °C-27 °C71 %1035.9 hPa16.1 kmNorth (10°)7.4 km/hClear
Hourly data recorded from KCBG, located 0 kilometers away from Cambridge, Minnesota







STORIES FROM OUR PARTNERS